Location: Carbonear
(47.7333°N, 53.2500°W)
Time: 09:35:26
(UTC+00:00)

BEESAT - Pass Details

Date: 03 December 2022
Orbit: 697 x 707 km, 98.5° (Epoch: 05 February)

Event Time Altitude Azimuth Distance (km) Brightness Sun altitude
Rises 10:01:19 0° 123° (ESE) 3,091 ? -10.0°
Reaches altitude 10° 10:04:03 10° 107° (ESE) 2,178 ? -9.6°
Maximum altitude 10:07:32 21° 60° (ENE) 1,588 ? -9.1°
Drops below altitude 10° 10:11:01 10° 13° (NNE) 2,192 ? -8.5°
Sets 10:13:46 0° 358° (N) 3,116 ? -8.1°
